SES-10

Last updated on Sun Apr 12 2026 00:02:54 GMT+0000 (Coordinated Universal Time)

1 42432U 17017A 26101.43609497 -.00000271 00000+0 00000+0 0 9992 2 42432 0.0307 50.1642 0002846 347.5479 252.0457 1.00272627 33080
UTC large
Height (km)
Speed (km/s)
/
Latitude / Longitude
Inclination (degrees)
Orbital Period (minutes)
Azimuth
Elevation
Range (km)
Doppler Factor

Next 0 passes for location: London (51.5072 / 0.1276)

Sorry there are no passes over London.
SES-10